RH
8 17 25 18 20 40 35 35 40 48 55 58 57 56 52 49 52 51 49 43 37 34 32 37 35 29 21 19 20 22 25 28 32 39 46 50 47 49 60 66 71 63 68
5 6 12 16 11 19 23 35 36 45 52 55 59 56 60 58 53 51 52 51 45 37 34 37 39 39 37 35 32 29 26 23 18 14 31 35 48 48 53 66 70 72 70
5 5 5 9 7 13 16 24 31 37 43 51 55 57 56 54 53 56 58 57 54 47 40 36 37 37 36 36 34 34 33 34 31 27 19 16 51 56 47 57 63 67 68
5 5 5 6 6 10 13 18 23 28 35 42 47 50 51 50 49 51 52 54 56 56 49 42 38 37 36 36 38 44 49 50 44 36 31 23 22 29 39 52 55 59 65
4 5 5 5 5 6 9 12 17 21 25 30 36 40 40 41 43 47 44 44 51 57 57 47 40 39 40 44 51 55 56 60 55 52 42 36 27 20 27 60 50 50 54
4 5 5 5 6 6 7 8 11 13 17 20 25 34 40 49 51 47 38 41 46 57 63 52 45 44 46 49 57 60 57 57 54 55 54 47 40 34 24 30 43 49 48
6 6 6 6 6 7 7 7 8 8 10 11 14 15 17 27 33 45 40 27 55 52 64 58 64 67 64 65 60 56 56 54 52 58 60 57 47 43 36 38 49 58 55
8 7 7 7 7 8 8 8 8 8 8 8 8 8 9 10 11 13 15 15 29 56 53 57 62 65 63 63 59 55 51 40 35 44 54 53 56 52 47 40 34 40 42
10 10 9 8 8 8 9 10 10 10 10 10 9 9 9 9 9 9 10 11 23 46 54 56 55 56 62 59 52 46 31 19 33 43 53 48 59 64 56 49 46 46 44
13 13 12 10 10 10 10 11 11 11 11 11 11 11 11 11 11 11 10 10 15 23 37 40 38 36 37 37 32 29 20 16 23 38 52 68 75 64 65 61 57 56 58
15 15 15 13 12 12 12 12 12 12 12 11 12 12 12 12 11 11 11 11 11 12 15 17 18 19 18 22 19 15 15 13 12 23 37 78 85 62 60 60 62 61 63
17 17 17 16 14 14 14 13 13 13 12 12 12 11 11 12 11 11 11 10 10 10 9 10 10 10 11 11 11 10 10 11 11 11 13 20 56 50 52 50 54 57 59
17 18 18 18 17 16 15 15 14 14 13 13 12 12 11 11 11 10 10 9 9 9 10 9 9 9 9 9 10 10 10 10 10 10 11 12 12 13 15 18 23 33 30
18 17 17 17 18 17 16 16 15 15 14 14 14 13 13 11 10 10 9 9 9 9 9 9 9 9 10 10 10 11 11 11 11 11 11 11 11 11 11 12 12 13 14
19 17 14 14 14 15 16 15 16 16 15 14 14 13 13 12 11 10 10 9 10 10 9 9 9 10 10 12 12 13 13 13 13 13 13 12 12 12 12 12 11 11 11
18 16 14 13 13 12 13 13 13 14 15 15 14 13 13 12 12 11 11 11 11 11 11 10 11 11 12 13 14 14 14 14 14 14 15 15 14 14 14 14 13 13 13
14 12 13 14 14 13 13 12 12 12 13 14 14 13 14 13 13 12 12 12 12 12 12 12 12 13 14 16 16 16 16 16 15 15 15 16 16 16 16 16 16 16 15
13 13 14 15 15 15 15 14 13 12 12 12 12 13 13 14 14 13 12 12 12 13 13 13 13 14 17 18 17 17 17 17 17 17 18 17 18 18 17 17 18 18 17
13 14 16 17 19 20 19 18 16 14 13 13 12 13 14 14 14 14 13 12 12 14 14 14 15 16 19 19 18 19 19 20 20 21 21 21 21 21 20 20 20 19 20
19 20 20 21 21 22 22 22 20 18 14 14 13 12 12 14 15 14 14 13 13 14 16 16 16 19 20 20 20 22 23 25 27 27 28 27 26 25 24 22 21 21 20
22 22 22 22 23 23 24 25 24 21 17 14 14 13 13 14 15 15 14 14 14 15 17 17 18 22 22 22 24 27 31 34 35 36 34 34 32 31 29 26 24 23 22
24 24 25 25 25 26 27 28 27 25 23 20 17 17 16 16 17 17 16 15 15 17 18 18 20 24 24 27 29 31 33 35 38 39 40 43 43 40 36 30 27 25 23
25 28 27 27 27 27 29 30 30 28 26 25 26 22 18 16 17 18 18 17 17 18 20 19 22 26 27 30 32 32 32 34 37 38 44 46 48 46 44 35 29 26 24
26 27 29 30 30 30 29 30 32 33 32 31 29 26 21 18 18 20 21 20 20 20 21 20 22 27 30 32 34 34 33 33 35 37 41 46 51 50 52 46 30 27 27
30 28 27 29 31 32 31 31 32 33 35 35 33 31 26 22 21 21 22 22 22 22 22 22 23 26 30 34 36 37 36 35 37 43 44 56 63 62 56 42 29 28 30
24 26 28 30 30 28 28 29 33 36 37 35 36 35 31 26 24 24 24 25 26 25 25 25 25 26 29 33 37 39 39 39 44 49 57 67 71 62 47 34 30 31 34
Wind_Speed
6 6 6 5 3 3 3 5 6 7 6 6 5 5 7 8 8 8 9 9 9 10 11 11 10 11 11 10 9 8 7 5 4 4 4 6 6 5 6 6 7 7 6
5 5 5 5 4 4 4 5 6 8 7 6 6 5 6 6 6 6 6 7 7 8 8 9 10 10 10 10 11 10 10 8 7 5 4 3 4 3 5 5 5 5 5
5 4 4 4 4 4 4 5 6 7 7 6 5 5 5 5 4 5 6 6 6 6 6 7 8 9 8 9 10 10 11 10 9 8 6 3 3 2 4 4 4 3 3
5 4 5 4 4 4 5 5 6 6 6 5 5 3 3 2 2 2 3 3 4 4 5 6 6 7 7 8 8 9 10 9 8 7 6 4 1 2 3 3 3 2 2
4 4 5 6 4 4 4 4 5 5 5 5 4 4 3 3 2 1 1 0 1 1 2 3 4 5 5 5 5 6 6 6 7 7 5 5 4 2 1 2 1 2 1
4 4 5 6 6 4 3 3 2 3 4 4 4 3 3 3 3 1 2 2 1 2 2 2 3 3 2 1 3 6 7 8 8 5 3 4 3 2 1 2 2 2 2
3 4 5 6 6 5 4 4 3 1 2 2 2 2 1 1 1 0 1 2 1 1 3 2 3 2 4 6 7 7 8 7 7 4 3 3 3 3 2 0 2 2 2
3 3 4 5 6 6 4 3 3 2 2 1 1 1 2 1 1 1 0 0 1 1 3 4 4 5 6 8 9 10 9 8 7 5 4 4 4 4 3 2 3 4 4
2 1 2 3 5 5 5 5 3 2 1 1 1 2 2 2 1 1 1 1 1 3 3 4 3 4 5 7 10 9 7 8 6 4 3 3 4 5 5 5 5 4 4
1 0 1 3 4 4 4 4 5 5 4 2 1 0 1 1 2 2 2 2 1 0 2 2 2 2 4 5 7 8 8 7 6 5 3 2 4 3 5 6 6 6 6
2 2 2 3 4 5 5 5 6 5 4 3 4 3 2 2 1 0 1 2 3 3 3 4 4 4 5 6 9 10 9 7 6 6 5 2 3 4 4 6 8 9 10
3 3 3 4 5 6 6 7 6 6 6 6 6 5 4 4 2 1 1 1 2 3 5 7 8 8 8 8 10 12 12 12 10 8 9 9 8 9 9 10 11 13 14
5 5 5 6 8 8 8 8 8 8 9 7 7 5 4 4 4 4 4 5 4 5 5 6 8 8 8 9 9 10 11 11 11 11 11 11 13 14 14 15 15 16 16
9 8 7 7 8 8 8 9 8 9 9 8 8 6 6 5 4 5 5 5 5 5 6 8 9 11 11 9 10 11 12 12 11 11 12 13 14 15 15 16 18 18 19
8 8 8 6 7 7 8 9 10 9 9 8 9 7 7 5 4 5 4 5 5 6 6 7 8 9 11 11 11 11 12 13 13 12 12 13 15 16 17 18 18 19 20
9 7 8 7 7 7 8 9 10 10 10 9 10 10 9 9 8 8 7 7 7 7 7 8 10 11 11 13 13 14 14 13 14 15 15 15 15 16 19 20 21 21 21
8 8 6 7 8 8 9 11 11 11 10 11 11 13 11 11 10 10 10 10 10 9 9 10 10 11 11 12 15 15 14 14 15 15 16 16 16 17 18 20 22 22 22
8 7 8 7 7 9 10 11 13 13 12 12 12 14 14 13 12 11 11 12 11 12 11 12 12 12 13 13 14 14 15 15 15 16 17 18 19 19 20 22 23 23 23
11 11 10 9 9 9 11 12 13 13 13 12 13 14 14 14 14 13 13 14 13 13 14 14 14 15 15 15 14 14 15 16 17 18 19 20 21 22 23 23 24 25 24
13 12 11 11 11 11 11 12 11 12 13 13 14 15 16 16 16 16 16 16 16 16 16 17 17 16 16 16 16 16 17 18 19 20 22 23 23 24 25 25 26 27 26
13 12 11 11 12 12 12 12 12 14 15 16 15 16 17 18 18 18 18 18 19 19 19 19 19 19 18 17 17 17 19 20 21 22 23 24 25 26 27 28 29 29 28
13 12 11 12 13 14 15 16 15 16 16 17 17 16 17 19 20 20 20 21 21 21 21 21 21 21 20 20 19 20 21 22 22 23 23 26 29 30 31 31 32 31 30
16 16 16 17 18 18 18 20 18 19 18 17 17 19 20 21 22 22 22 22 23 23 24 24 24 24 24 24 24 24 25 25 26 25 27 30 32 32 33 33 33 33 32
19 20 21 23 23 22 21 22 21 20 20 19 20 23 23 22 22 22 22 23 24 25 26 27 27 28 28 29 28 28 28 29 29 29 28 32 39 39 40 36 34 33 32
21 23 25 25 25 22 21 21 21 20 21 22 23 24 24 24 24 24 24 24 25 26 28 29 30 31 32 33 33 33 32 32 32 31 32 40 41 44 39 34 33 31 30
20 22 22 22 21 19 19 18 18 20 22 24 25 24 23 24 25 24 25 26 26 27 28 30 32 34 36 36 37 38 37 36 34 37 44 48 44 35 33 33 30 29 29
Wind_Direction
134 137 124 114 107 115 120 125 127 129 120 108 105 98 95 92 84 77 79 80 82 88 89 85 83 89 93 93 89 88 87 86 83 84 90 102 104 108 105 106 98 98 90
119 124 119 115 103 92 113 127 133 132 133 124 105 108 102 93 83 77 76 81 81 80 85 89 89 83 81 83 82 79 75 66 58 62 99 109 106 101 110 109 100 89 81
91 92 97 94 101 103 121 127 127 134 140 145 134 111 106 94 74 72 80 85 83 80 77 76 80 82 79 75 75 75 73 65 58 48 51 67 126 150 136 115 119 97 77
100 97 92 89 90 101 116 126 126 131 140 150 146 135 126 112 82 78 67 67 83 87 87 85 88 90 87 81 72 63 52 45 50 52 43 45 36 68 137 135 146 149 134
126 106 108 100 91 86 95 117 124 126 138 135 136 136 146 146 132 109 59 61 162 108 115 104 102 102 95 88 63 32 30 21 14 23 25 16 15 17 168 152 166 186 218
123 125 120 114 112 108 102 100 107 127 148 139 146 143 134 137 120 67 48 53 95 155 147 149 128 119 112 6 347 351 350 353 0 358 13 349 345 358 297 248 275 302 264
123 125 128 130 130 131 132 136 131 140 132 114 114 128 131 152 134 199 29 44 62 185 182 197 199 249 282 295 305 318 328 341 342 354 349 346 321 324 329 11 266 261 265
77 95 119 131 142 150 146 146 130 113 100 96 75 77 90 59 336 275 220 126 225 181 200 208 242 272 292 297 303 309 316 324 315 303 318 326 308 287 295 298 281 280 288
26 79 118 135 150 164 167 150 143 130 89 52 39 69 65 65 72 36 17 76 197 193 205 228 240 266 283 292 298 306 316 339 334 321 303 308 307 263 260 271 275 288 292
314 242 152 145 162 174 169 164 166 173 171 166 179 39 59 41 40 28 40 27 54 218 196 225 234 263 287 297 310 309 330 346 346 339 332 342 356 302 271 272 274 277 282
255 243 219 192 179 190 187 192 190 197 194 199 194 193 222 224 258 25 24 20 13 353 334 325 335 336 331 325 324 322 334 346 352 336 326 14 308 292 278 277 276 280 283
237 237 219 214 208 212 208 213 211 215 221 219 220 219 224 238 246 284 318 358 334 339 339 348 346 344 342 335 326 328 333 337 335 336 325 315 291 290 286 279 276 275 276
228 225 231 220 220 223 219 225 229 236 239 239 246 252 267 297 329 332 322 337 334 332 328 323 322 323 324 324 319 315 317 320 322 323 315 306 300 295 293 289 281 276 277
223 223 235 228 233 243 246 249 252 256 267 276 286 292 302 315 328 318 323 322 317 314 320 322 320 317 319 317 314 312 311 312 309 305 305 301 295 293 289 286 282 281 280
229 224 239 245 242 239 253 262 268 266 275 284 281 280 284 278 270 273 276 279 286 292 296 297 302 302 304 308 309 303 305 306 305 301 299 296 293 292 289 286 286 285 284
233 231 240 251 257 260 257 264 270 275 275 277 274 270 262 264 268 276 280 280 280 292 296 298 301 303 306 309 309 307 307 306 306 307 305 300 297 295 292 291 291 289 288
243 236 232 248 263 271 273 276 274 268 264 261 265 275 275 275 277 283 292 296 301 302 299 297 296 298 302 305 305 303 303 304 307 310 311 308 302 294 290 288 288 289 289
239 244 240 245 257 271 276 282 285 282 279 278 276 276 279 281 282 282 285 288 294 298 300 297 296 296 296 297 297 299 301 304 307 308 308 306 303 302 299 297 294 293 292
231 239 250 256 264 271 277 278 286 291 287 284 280 276 277 280 280 279 280 281 284 286 287 287 287 290 292 293 293 295 298 300 303 303 305 307 305 303 301 299 296 295 295
240 247 253 259 262 267 275 285 288 287 279 275 272 274 272 273 276 277 276 276 278 279 282 284 285 287 290 291 293 295 299 304 305 307 307 307 307 303 302 301 299 298 297
248 254 257 255 258 263 275 277 273 272 272 272 272 273 277 278 279 279 277 276 278 280 281 281 282 285 285 285 290 297 301 302 305 307 308 308 308 306 304 301 298 297 298
246 242 257 267 263 261 262 264 265 265 271 278 283 283 276 272 271 272 273 275 276 278 278 277 277 280 281 285 288 292 296 298 300 302 304 308 308 306 303 300 299 299 299
240 248 259 260 259 254 256 263 267 268 269 272 273 268 265 269 272 275 277 277 278 279 277 276 277 280 280 281 286 290 294 295 296 296 298 304 307 304 304 300 298 297 297
242 251 257 258 259 255 254 259 261 261 263 266 268 267 267 269 274 276 276 277 277 278 278 276 276 277 278 280 284 288 291 294 295 296 296 302 303 301 303 297 295 294 294
257 258 261 262 263 263 260 258 257 260 263 265 268 271 271 269 272 274 275 276 278 278 277 276 275 276 277 279 282 285 288 292 294 291 292 305 301 299 295 292 292 293 293
248 249 250 251 255 257 257 257 256 259 261 264 267 271 271 269 272 277 276 274 273 274 276 275 274 275 276 279 283 286 289 292 290 291 301 309 303 297 293 292 291 290 289